Regional Weather Roundup
Issued by NWS State College, PA

Home | Current Version | Previous Version | Graphics & Text | Print | Product List | Glossary On
Versions: 1 2 3 4 5 6 7 8 9 10 11 12 13 14 15 16 17 18 19 20 21 22 23 24 25 26 27 28 29 30 31 32 33 34 35 36 37 38 39 40 41 42 43 44 45 46 47 48 49 50
329
ASUS41 KCTP 280410
RWRCTP

REGIONAL WEATHER ROUNDUP
NATIONAL WEATHER SERVICE STATE COLLEGE PA
1200 AM EDT TUE MAR 28 2017

Note: "fair" indicates few or no clouds below 12,000 feet with no
significant weather and/or obstructions to visibility.

* = STATION THAT DOES NOT REPORT PRECIPITATION /E.G. RAIN...SNOW...ETC/
    THUNDER OR FOG.

PAZ002>004-007>009-013>016-020>023-029>032-280500-
WESTERN PENNSYLVANIA

CITY           SKY/WX    TMP DP  RH WIND       PRES   REMARKS
ERIE           CLOUDY    49  46  90 S3        29.91F
MEADVILLE      PTCLDY    48  45  89 NE8       29.91S
FRANKLIN*      MOCLDY    48  43  81 N3        29.92S
NEW CASTLE     CLOUDY    54  48  80 E3        29.90F
BEAVER COUNTY  NOT AVBL
BUTLER*        MOCLDY    52  48  87 CALM      29.91S
PITTSBURGH INT CLOUDY    58  50  75 CALM      29.89S
PITTSBURGH     PTCLDY    61  47  59 SE6       29.89S
INDIANA*       CLOUDY    54  50  87 CALM      29.93S
LATROBE        PTCLDY    55  54  94 CALM      29.91S
WASHINGTON CO* PTCLDY    52  48  87 CALM      29.91S
$$

PAZ004>006-010>012-017>019-024>028-033>037-041-042-045-046-049>053-280500-
CENTRAL PENNSYLVANIA

CITY           SKY/WX    TMP DP  RH WIND       PRES   REMARKS
BRADFORD       CLOUDY    46  45  96 CALM      29.92F
DUBOIS         PTCLDY    53  44  71 E3        29.91F
CLEARFIELD       N/A    N/A N/A N/A MISG      29.92F
JOHNSTOWN      MOCLDY    58  49  72 S5        29.92F
ALTOONA        CLOUDY    57  49  74 CALM      29.92F
STATE COLLEGE  PTCLDY    53  48  84 CALM      29.92S
WILLIAMSPORT   MOCLDY    49  47  93 CALM      29.93F
SELINSGROVE    PTCLDY    48  47  96 CALM      29.94F
FT INDIANTOWN  MOCLDY    48  48 100 NE3       29.95F
CAPITAL CITY   CLOUDY    53  48  83 SE6       29.94F HAZE
HARRISBURG     CLOUDY    52  50  93 CALM      29.94S
YORK           CLOUDY    51  51 100 CALM      29.92F FOG
$$

PAZ038>040-043-044-047-048-054-055-060>062-067>071-280500-
EASTERN PENNSYLVANIA

CITY           SKY/WX    TMP DP  RH WIND       PRES   REMARKS
SCRANTON       CLOUDY    51  47  86 E6        29.95S
MOUNT POCONO   CLOUDY    41  41 100 E3        29.96F
ALLENTOWN      CLOUDY    49  45  86 NE6       29.97F FOG
QUAKERTOWN*    CLOUDY    48  48 100 CALM      29.98S
READING        CLOUDY    49  49 100 CALM      29.95F FOG
LANCASTER      CLOUDY    52  51  97 E6        29.93F FOG
COATESVILLE    PTCLDY    54  52  94 E10       29.96F FOG
POTTSTOWN      MOCLDY    49  48  97 CALM      29.97F FOG
BLUE BELL      CLOUDY    46  46 100 CALM      29.96F
DOYLESTOWN     CLOUDY    48  48 100 CALM      29.96F FOG
WILLOW GROVE   NOT AVBL
NORTH PHILA    CLOUDY    51  49  92 E3        29.98F FOG
PHILADELPHIA   CLOUDY    53  50  89 NE7       29.97S FOG
$$




USA.gov is the U.S. government's official web portal to all federal, state and local government web resources and services.